Weather Roundup
Issued by NWS

Home | Current Version | Previous Version | Graphics & Text | Print | Product List | Glossary Off
Versions: 1 2 3 4 5 6 7 8 9 10 11 12 13 14 15 16 17 18 19 20 21 22 23 24 25 26 27 28 29 30 31 32 33 34 35 36 37 38 39 40 41 42 43 44 45 46 47 48 49 50

000
NZUS93 KARX 291910
HRRWXR

CURRENT HOURLY OBSERVATIONS ACROSS
MUCH OF THE UPPER MISSISSIPPI VALLEY
NATIONAL WEATHER SERVICE LA CROSSE WI
200 PM CDT WED JUL 29 2015


...SOUTHEAST MINNESOTA...


CITY           SKY/WX    TMP DP  RH WIND       PRES   REMARKS
ROCHESTER      SUNNY     78  58  49 W23G32    30.02S
ROCHESTER/MAYO FAIR      78  50  36 W30G44    29.98F
WINONA         SUNNY     81  50  34 W18G26    29.97S
AUSTIN         SUNNY     81  52  36 W20G29    30.04F
ALBERT LEA     SUNNY     81  55  41 W14G21    30.04F
DODGE CENTER   SUNNY     79  54  41 W22G30    30.02S
PRESTON        SUNNY     78  52  40 W24G35    30.04S
OWATONNA       SUNNY     79  54  41 W22G30    30.02S
FARIBAULT      SUNNY     79  57  47 W15G22    30.01S
$$

...ELSEWHERE IN MINNESOTA...


CITY           SKY/WX    TMP DP  RH WIND       PRES   REMARKS
MINNEAPOLIS    MOSUNNY   80  53  39 W22G37    29.95R
INTNL FALLS    LGT RAIN  63  59  87 W16G24    29.66R
DULUTH         PTSUNNY   72  55  55 W24G40    29.79R
RED WING       SUNNY     82  50  32 W26G37    29.94S
REDWOOD FALLS  SUNNY     81  52  36 W23G35    30.01S
MANKATO        SUNNY     79  55  44 W23G31    30.02S
WORTHINGTON    SUNNY     77  57  50 W15G24    30.10F
FAIRMONT       SUNNY     81  52  36 W16G26    30.07S
$$

...SOUTHWEST WISCONSIN...


CITY           SKY/WX    TMP DP  RH WIND       PRES   REMARKS
LA CROSSE      SUNNY     84  53  34 W20G32    29.96S
PRAIRIE DU CHI SUNNY     83  48  29 W15G25    30.02R
BOSCOBEL       SUNNY     85  53  33 W18G28    30.01R
LONE ROCK      SUNNY     84  52  33 W15       30.00S
PLATTEVILLE    SUNNY     81  58  45 W13G20    30.04S
FORT MC COY    SUNNY     82  48  30 W20G26    29.97R
CAMP DOUGLAS   SUNNY     82  54  36 W15G33    29.95S
VIROQUA        FAIR      79  52  38 W15G23    30.01F
WIS DELLS      SUNNY     83  44  24 W15G30    29.97S
$$

...ELSEWHERE IN WISCONSIN...


CITY           SKY/WX    TMP DP  RH WIND       PRES   REMARKS
MILWAUKEE      MOSUNNY   85  46  25 W17G28    29.96S
MADISON        MOSUNNY   83  51  33 W8G17     29.98S
GREEN BAY      SUNNY     84  53  34 W16G26    29.87S
EAU CLAIRE     SUNNY     81  52  36 W26G40    29.91R
BLACK RVR FLS  FAIR      83  48  30 W25G35    29.94S
MEDFORD        SUNNY     77  53  42 W26G32    29.90R
WAUSAU         SUNNY     82  48  30 W35G46    29.87S
WIS RAPIDS     SUNNY     85  47  26 W15G31    29.93S
MARSHFIELD     SUNNY     81  50  33 W21G32    29.91S
RICE LAKE      MOSUNNY   76  55  49 W22G28    29.91S
$$

...NORTHEAST IOWA...


CITY           SKY/WX    TMP DP  RH WIND       PRES   REMARKS
DECORAH        SUNNY     79  55  44 W10G22    30.04R
MASON CITY     SUNNY     82  56  40 W24G32    30.08F
CHARLES CITY   SUNNY     79  55  44 W17G28    30.07S
OELWEIN        SUNNY     81  57  44 NW15G24   30.08S
$$

...ELSEWHERE IN IOWA...


CITY           SKY/WX    TMP DP  RH WIND       PRES   REMARKS
DES MOINES     PTSUNNY   85  53  33 NW12      30.11F
IOWA CITY      SUNNY     83  55  38 NW16      30.09S
FORT DODGE     SUNNY     81  57  44 W15G22    30.13S
$$

...NORTHERN ILLINOIS...


CITY           SKY/WX    TMP DP  RH WIND       PRES   REMARKS
CHICAGO-OHARE  PTSUNNY   87  50  27 NW14      29.98F
CHICAGO-MIDWAY PTSUNNY   88  56  33 W13       29.98S
MOLINE         MOSUNNY   84  56  38 NW12G21   30.06S
ROCKFORD       MOSUNNY   85  53  33 W15G21    30.04R
PEORIA         SUNNY     87  63  44 NW8       30.06R
$$

NOTE: "FAIR" INDICATES FEW OR NO CLOUDS BELOW 12,000 FEET WITH NO
SIGNIFICANT WEATHER AND/OR OBSTRUCTIONS TO VISIBILITY. WIND
SPEEDS ARE IN MILES-PER-HOUR.



USA.gov is the U.S. government's official web portal to all federal, state and local government web resources and services.